Weather History for Eureka, NU

Change the Weather History Date:

Saturday, March 1, 2014

  Actual Average Record
Temperature  
Mean Temperature -43 °F -  
Max Temperature -39 °F -28 °F 17 °F (2006)
Min Temperature -47 °F -41 °F -60 °F (2013)
Degree Days  
Heating Degree Days 108    
Moisture  
Dew Point -48 °F    
Average Humidity 66    
Maximum Humidity 74    
Minimum Humidity 46    
Precipitation  
Precipitation 0.00 in 0.00 in - ()
Sea Level Pressure  
Sea Level Pressure 30.54 in    
Wind  
Wind Speed 0 mph ()    
Max Wind Speed 2 mph    
Max Gust Speed -    
Visibility 12.2 miles    
Events Snow    
Averages and records for this station are not official NWS values.
T = Trace of Precipitation, MM = Missing Value Source: Averaged Metar Reports

Daily Weather History Graph

Daily Weather History Graph

Search for Another Location

Airport:

Trip Planner

Search our weather history database for the weather conditions in past years. The results will help you decide how hot, cold, wet, or windy it might be!

Date:

Astronomy

Mar. 01, 2014 Rise Set
Actual Time 8:40 AM CST 3:14 PM CST
Civil Twilight 6:28 AM CST 5:27 PM CST
Nautical Twilight 4:07 AM CST 7:50 PM CST
Astronomical Twilight 12:28 AM CST 11:23 PM CST
Moon 7:12 AM CST (3/1) 6:04 PM CST (3/1)
Length of Visible Light 10h 59m
Length of Day
6h 34m
New Moon, 0% of the Moon is Illuminated
Mar 1
New Moon
Mar 8
First Quarter
Mar 16
Full
Mar 23
Last Quarter
Mar 30
New

Hourly Weather History & Observations

Time (CST) Temp. Dew Point Humidity Pressure Visibility Wind Dir Wind Speed Gust Speed Precip Events Conditions
12:00 AM -43 °F -49 °F 52% 30.59 in 1 mi Calm Calm - - Snow Light Snow
12:00 AM -43.6 °F -49.0 °F 74% 30.59 in 1.5 mi Calm Calm - N/A Snow Light Snow
1:00 AM -41.8 °F -49.0 °F 67% 30.61 in 1.5 mi Calm Calm - N/A Snow Light Snow
2:00 AM -36.4 °F -43.6 °F 67% 30.61 in 1.5 mi Calm Calm - N/A Snow Light Snow
3:00 AM -40.0 °F -47.2 °F 67% 30.61 in 1.5 mi SSE 2.3 mph - N/A Snow Light Snow
4:00 AM -43.6 °F -49.0 °F 74% 30.61 in 7.0 mi Calm Calm - N/A   Clear
5:00 AM -43.6 °F -49.0 °F 74% 30.59 in 15.0 mi Calm Calm - N/A   Clear
6:00 AM -42 °F -49 °F 50% 30.58 in 15 mi Calm Calm - - Snow Snow
6:00 AM -41.8 °F -49.0 °F 67% 30.58 in 15.0 mi Calm Calm - N/A   Clear
7:00 AM -43.6 °F -49.0 °F 74% 30.58 in 15.0 mi Calm Calm - N/A   Clear
7:36 AM - - N/A% - 15.0 mi Calm Calm - N/A   Clear
8:00 AM -43.6 °F -49.0 °F 74% 30.58 in 15.0 mi Calm Calm - N/A   Partly Cloudy
9:00 AM -41.8 °F -47.2 °F 74% 30.57 in 15.0 mi Calm Calm - N/A   Partly Cloudy
10:00 AM -43.6 °F -50.8 °F 67% 30.56 in 15.0 mi ESE 2.3 mph - N/A   Partly Cloudy
11:00 AM -40.0 °F -47.2 °F 67% 30.55 in 15.0 mi Calm Calm - N/A   Partly Cloudy
12:00 PM -41 °F -49 °F 46% 30.53 in 15 mi Calm Calm - -   Partly Cloudy
12:00 PM -40.0 °F -49.0 °F 60% 30.53 in 15.0 mi Calm Calm - N/A   Partly Cloudy
1:00 PM -41.8 °F -49.0 °F 67% 30.52 in 15.0 mi Calm Calm - N/A   Partly Cloudy
2:00 PM -41.8 °F -49.0 °F 67% 30.51 in 15.0 mi SE 2.3 mph - N/A   Partly Cloudy
3:00 PM -41.8 °F -49.0 °F 67% 30.50 in 15.0 mi Calm Calm - N/A   Partly Cloudy
4:00 PM -41.8 °F -49.0 °F 67% 30.49 in 15.0 mi Calm Calm - N/A   Partly Cloudy
5:00 PM -41.8 °F -49.0 °F 67% 30.47 in 15.0 mi Calm Calm - N/A   Partly Cloudy
6:00 PM -40 °F -47 °F 49% 30.46 in 15 mi Calm Calm - -   Scattered Clouds
6:00 PM -40.0 °F -47.2 °F 67% 30.46 in 15.0 mi Calm Calm - N/A   Partly Cloudy
7:00 PM -40.0 °F -47.2 °F 67% 30.45 in 15.0 mi Calm Calm - N/A   Partly Cloudy
8:00 PM -40.0 °F -47.2 °F 67% 30.41 in 15.0 mi ESE 2.3 mph - N/A   Clear
9:00 PM -40.0 °F -47.2 °F 67% 30.39 in 15.0 mi Calm Calm - N/A   Clear